Location: Eitze
(52.9840°N, 9.6894°E)
Time: 20:37:32
(UTC+00:00)

Cosmos 1455 - Pass Details

Date: 19 May 2025
Orbit: 324 x 333 km, 82.5° (Epoch: 20 June)

Event Time Altitude Azimuth Distance (km) Brightness Sun altitude
Rises 23:44:31 0° 350° (N) 2,170 6.8 -16.8°
Reaches altitude 10° 23:46:30 10° 352° (N) 1,314 5.5 -16.8°
Maximum altitude 23:49:20 78° 79° (E) 356 1.3 -16.7°
Enters shadow 23:49:44 60° 147° (SSE) 399 1.3 -16.7°
